Starlink 32006

operational
NORAD ID: 60029 Int'l Des: 2024-111 Owner: SPXS Country: US Constellation: starlink
LEOCIRCULAR

About Starlink 32006

Description loading...

Live Position

Loading 3D Globe...

Upcoming Passes

Altitude History

Altitude vs Time

uPlot chart will show altitude changes over time

Two-Line Element Set

1 60029U 24111P 25351.65536044 -.00001102 00000-0 -25098-4 0 9999
2 60029 53.1603 96.6717 0001130 78.9808 281.1320 15.30193907 86478
Epoch: Dec 17, 2025 • Age: 14 hours

Current Status

Altitude 480.6 km
Velocity 7.63 km/s
Sub-Earth Point 51.35°N, 17.11°W
Launch Date Jun 8, 2024
Age 1.5 years
Type internet

Technical Details

Classification Payload
Mass 730.00 kg
Dry Mass 700.00 kg
Total Mass 730.00 kg
Length 0.30 m
Diameter 4.10 m
Span 29.00 m
Shape Box + pan
Manufacturer SPXS
Bus Type Starlink V2M
Phase Status In Orbit
Owner/State SPXS/US

Large Constellations

Loading constellations...